STARLINK-32782, 62821

Orbit data source: Space-Track

STARLINK-32782, 62821 is a payload satellite owned by SpaceX/Seattle (US) in LEO that was launched on Fri, 24 Jan 2025 UTC via an FALCON 9 launch vehicle from the Air Force Western Test Range (AFWTR). Payload-class satellites include a variety of spacecraft equipped with specific instruments for various scientific and technological missions. These include communications satellites like Starlink; space stations such as the ISS; scientific satellites like the Hubble; Earth observation satellites from companies like Planet Labs, Umbra, and HawkEye 360; GPS; miniature CubeSats for education and research; and military/defense satellites.

Loading next visibility...
Identifier
62821, 2025-018R
Orbit
LEO
Country
Flag of USUS
Related business
Manufacturer
SpaceX/Seattle
Mission
Operational Commercial Communications
Bus & Motor
STARLINK V2M, Unknown motor
Mass
730 kg wet, ~700 kg dry
Launch date (UTC)
2025-01-24 (2 years ago)
Launch vehicle
FALCON 9
Launch site
Air Force Western Test Range (AFWTR)
Object type
Payload
Rocket body
Debris
Shape & HBR
Box + 2 Pan, 17.7 m
Radar Cross Section
33.884 m², Large (>1 m²)

Expand to show TLE details & history
Last TLE update: 21 hours ago

TLE from 21 hours ago
0 STARLINK-32782
1 62821U 25018R   26237.30396958  .00019661  00000-0  59147-3 0  9990
2 62821  53.1563 244.2992 0001063  89.0732 271.0392 15.34401534 89028
Epoch: 2026-08-25T07:17Z
TLE epoch observation values (Epoch: 2026-08-25T07:17:42.971Z)
Latitude
-0.00006°
Longitude
161.29686°
Altitude
463.587 km
Speed
7.636 km/s
True Right ascension
16h 17m 11s
True Declination
0° 00' 00"
Sunlit
Object was in daylight at epoch
Visualization orbit readout
Latitude
Unknown
Longitude
Unknown
Altitude
Unknown
Speed
Unknown
Apparent Right ascension
Unknown
Apparent Declination
Unknown
Sunlit
N/A
Visualization observer readout
Local Sidereal Time
19:10:50
Azimuth
Unknown
Elevation
Unknown
Doppler factor
Unknown
Orbital elements
Apogee altitude
463.683 km
Perigee altitude
462.229 km
Semi-major axis
6,841.093 km
Eccentricity
0.00011
Inclination
53.1563°
RAAN
244.2992°
Arg. of periapsis
89.0732°
True anomaly
271.02702°
Mean anomaly
271.0392°
Eccentric anomaly
271.03311°
Mean motion
3.83579 °/min
Orbital period
93.85 mins
BSTAR
0.00059147
Loading maneuver chart data...
Computing Atmospheric mass density...
Loading historical data...
Loading historical data...
Loading historical data...
Loading historical data...
Loading historical data...
Loading historical data...
Loading historical data...

Documentation

Showing up to 5 results
|